Weather reports worldwide

Advertisment
Brownsville/Int., United States of America (72250): temperature & dewpoint: 09.10.2019 12:00:00 - 15.10.2019 12:00:00 (CDT)Brownsville/Int., United States of America (72250): wind speed & gusts: 09.10.2019 12:00:00 - 15.10.2019 12:00:00 (CDT)Brownsville/Int., United States of America (72250): wind direction: 09.10.2019 12:00:00 - 15.10.2019 12:00:00 (CDT)Brownsville/Int., United States of America (72250): reduced air pressure: 09.10.2019 12:00:00 - 15.10.2019 12:00:00 (CDT)Brownsville/Int., United States of America (72250): visibility: 09.10.2019 12:00:00 - 15.10.2019 12:00:00 (CDT)Brownsville/Int., United States of America (72250): precipitation: 09.10.2019 12:00:00 - 15.10.2019 12:00:00 (CDT)
Date & Time tt [°C] td [°C] ff [km/h] ff [kn] fx [km/h] fx [kn] dd ppp [hPa] vv [km] rr [mm]
15.10.2019 12:00:00 32,2 22,2 21 11 - - S 1012,4 16 -
15.10.2019 11:00:00 30,6 22,2 28 15 - - S 1012,9 16 -
15.10.2019 10:00:00 29,4 23,3 21 11 - - SSE 1013,1 16 -
15.10.2019 09:00:00 26,7 23,9 9 5 - - SSE 1012,9 16 -
15.10.2019 08:00:00 25,0 23,3 11 6 - - SE 1012,5 16 -
15.10.2019 07:00:00 23,9 22,2 8 4 - - SSE 1012,4 16 0,0
15.10.2019 06:00:00 25,0 22,8 8 4 - - SSE 1012,3 16 -
15.10.2019 05:00:00 25,0 22,8 8 4 - - SSE 1012,1 16 -
15.10.2019 04:00:00 25,6 22,8 9 5 - - SSE 1012,4 16 -
15.10.2019 03:00:00 26,1 23,3 13 7 - - SSE 1012,9 16 -
15.10.2019 02:00:00 26,7 23,9 13 7 - - SSE 1013,2 16 -
15.10.2019 01:00:00 26,7 23,9 13 7 - - SSE 1013,5 16 0,0
15.10.2019 00:00:00 27,2 23,9 15 8 - - SSE 1013,8 16 -
14.10.2019 23:00:00 26,7 23,9 11 6 - - SE 1013,9 16 -
14.10.2019 22:00:00 27,2 23,9 13 7 - - SE 1013,5 16 -
14.10.2019 21:00:00 27,2 23,9 11 6 - - ESE 1012,9 16 -
14.10.2019 20:00:00 27,8 23,9 13 7 - - ESE 1012,2 16 -
14.10.2019 19:00:00 28,3 23,3 18 10 - - SE 1012,0 16 0,0
14.10.2019 18:00:00 30,6 22,2 24 13 - - SSE 1011,8 16 -
14.10.2019 17:00:00 31,7 21,7 24 13 - - SSE 1011,8 16 -
14.10.2019 16:00:00 31,7 21,7 18 10 - - SE 1011,9 16 -
14.10.2019 15:00:00 32,8 21,7 22 12 - - SE 1012,0 16 -
14.10.2019 14:00:00 31,7 21,7 13 7 - - S 1012,8 16 -
14.10.2019 13:00:00 31,7 21,7 15 8 - - S 1013,7 16 0,0
14.10.2019 12:00:00 30,0 22,2 15 8 - - SSE 1014,6 16 -
14.10.2019 11:00:00 28,3 22,2 13 7 - - SSW 1015,0 16 -
14.10.2019 10:00:00 26,1 21,7 5 3 - - WSW 1014,9 16 -
14.10.2019 09:00:00 23,9 21,1 5 3 - - WNW 1014,6 16 -
14.10.2019 08:00:00 21,7 20,0 0 0 - - N 1014,3 16 -
14.10.2019 07:00:00 21,1 19,4 5 3 - - W 1014,1 16 0,0
14.10.2019 06:00:00 21,7 19,4 8 4 - - WSW 1013,4 16 -
14.10.2019 05:00:00 21,7 19,4 0 0 - - N 1013,3 16 -
14.10.2019 04:00:00 21,7 19,4 5 3 - - S 1013,6 16 -
14.10.2019 03:00:00 22,2 20,0 0 0 - - N 1013,9 16 -
14.10.2019 02:00:00 22,2 20,0 0 0 - - N 1013,8 16 -
14.10.2019 01:00:00 22,8 20,6 0 0 - - N 1014,0 16 0,0
14.10.2019 00:00:00 23,3 21,7 0 0 - - N 1014,2 16 -
13.10.2019 23:00:00 23,3 21,1 0 0 - - N 1013,9 16 -
13.10.2019 22:00:00 24,4 22,2 0 0 - - N 1013,7 16 -
13.10.2019 21:00:00 24,4 22,2 0 0 - - N 1013,2 16 -
13.10.2019 20:00:00 25,0 22,2 8 4 - - NE 1012,5 16 -
13.10.2019 19:00:00 26,1 22,2 13 7 - - ENE 1012,2 16 0,0
13.10.2019 18:00:00 29,4 22,2 13 7 - - NE 1011,8 16 -
13.10.2019 17:00:00 30,6 19,4 5 3 - - - 1011,7 16 -
13.10.2019 16:00:00 29,4 19,4 5 3 - - NW 1011,9 16 -
13.10.2019 15:00:00 29,4 18,9 11 6 - - NW 1012,5 16 -
13.10.2019 14:00:00 28,9 18,9 11 6 - - NW 1013,3 16 -
13.10.2019 13:00:00 27,2 16,1 16 9 - - NW 1014,0 16 0,0
13.10.2019 12:00:00 24,4 13,3 15 8 - - NW 1015,0 16 -
13.10.2019 11:00:00 23,9 13,9 15 8 - - NW 1014,9 16 -
13.10.2019 10:00:00 21,7 12,2 18 10 - - NNW 1014,8 16 -
13.10.2019 09:00:00 20,6 10,6 21 11 - - NNW 1014,8 16 -
13.10.2019 08:00:00 20,0 11,7 16 9 - - NNW 1014,2 16 -
13.10.2019 07:00:00 20,0 11,1 16 9 - - NW 1014,2 16 0,0
13.10.2019 06:00:00 20,6 10,6 21 11 - - NW 1014,2 16 -
13.10.2019 05:00:00 20,6 10,0 16 9 - - NNW 1014,2 16 -
13.10.2019 04:00:00 20,6 10,0 16 9 - - NW 1014,5 16 -
13.10.2019 03:00:00 20,6 11,1 15 8 - - NW 1014,8 16 -
13.10.2019 02:00:00 20,6 11,1 15 8 - - WNW 1015,2 16 -
13.10.2019 01:00:00 20,6 11,7 13 7 - - NW 1015,4 16 0,0
13.10.2019 00:00:00 20,0 10,6 13 7 - - NW 1016,1 16 -
12.10.2019 23:00:00 20,0 9,4 11 6 - - NW 1016,8 16 -
12.10.2019 22:00:00 20,0 7,8 9 5 - - NNW 1017,2 16 -
12.10.2019 21:00:00 20,0 7,2 15 8 - - N 1017,1 16 -
12.10.2019 20:00:00 20,0 7,2 13 7 - - NNE 1017,0 16 -
12.10.2019 19:00:00 20,0 6,7 13 7 - - N 1017,3 16 0,0
12.10.2019 18:00:00 21,1 7,2 15 8 - - NNE 1016,8 16 -
12.10.2019 17:00:00 22,8 7,8 18 10 - - N 1017,0 16 -
12.10.2019 16:00:00 21,7 6,7 24 13 - - N 1017,4 16 -
12.10.2019 15:00:00 20,6 6,7 21 11 - - N 1018,4 16 -
12.10.2019 14:00:00 20,6 6,7 26 14 - - NNW 1019,5 16 -
12.10.2019 13:00:00 18,9 5,6 29 16 - - NNW 1020,6 16 0,0
12.10.2019 12:00:00 17,8 5,0 34 18 48 26 NW 1021,3 16 -
12.10.2019 11:00:00 17,2 4,4 26 14 55 30 NW 1021,1 16 -
12.10.2019 10:00:00 16,7 4,4 26 14 54 29 NW 1020,8 16 -
12.10.2019 09:00:00 16,1 3,9 26 14 - - NW 1020,6 16 -
12.10.2019 08:00:00 15,6 3,9 28 15 48 26 NW 1020,2 16 -
12.10.2019 07:00:00 15,6 3,9 24 13 48 26 NW 1020,4 16 0,0
12.10.2019 06:00:00 15,6 4,4 26 14 54 29 NNW 1020,1 16 -
12.10.2019 05:00:00 15,0 5,0 31 17 52 28 NW 1019,2 16 -
12.10.2019 04:00:00 14,4 5,0 28 15 52 28 NW 1019,3 16 -
12.10.2019 03:00:00 14,4 6,1 29 16 - - NW 1019,8 16 -
12.10.2019 02:00:00 13,9 6,7 24 13 50 27 NW 1020,2 16 -
12.10.2019 01:00:00 13,9 7,2 28 15 - - NW 1020,7 16 0,0
12.10.2019 00:00:00 13,9 8,3 29 16 - - NW 1021,4 16 -
11.10.2019 23:00:00 14,4 8,9 29 16 54 29 NW 1020,8 16 -
11.10.2019 22:00:00 15,0 8,9 31 17 50 27 NNW 1020,2 16 -
11.10.2019 21:00:00 15,6 9,4 28 15 54 29 NNW 1019,6 16 -
11.10.2019 20:00:00 16,7 10,0 22 12 50 27 NNW 1018,2 16 -
11.10.2019 19:00:00 17,8 11,7 28 15 59 32 NNW 1017,4 16 -
11.10.2019 18:00:00 20,6 17,2 31 17 61 33 N 1016,0 16 -
11.10.2019 17:00:00 23,3 21,1 26 14 48 26 N 1014,5 16 3,3
11.10.2019 16:00:00 22,8 20,6 18 10 74 40 N 1013,7 4,8 24,9
11.10.2019 15:00:00 30,6 25,0 16 9 55 30 E 1011,0 13 0,3
11.10.2019 14:00:00 35,0 23,3 16 9 - - SE 1011,5 16 -
11.10.2019 13:00:00 33,9 23,3 15 8 - - S 1012,3 16 0,0
11.10.2019 12:00:00 32,8 23,9 21 11 - - SSE 1012,1 16 -
11.10.2019 11:00:00 32,2 24,4 21 11 - - S 1011,8 16 -
11.10.2019 10:00:00 32,2 25,0 22 12 - - SSE 1011,6 16 -
11.10.2019 09:00:00 28,9 25,0 13 7 - - SSE 1010,9 16 -
11.10.2019 08:00:00 26,7 23,9 9 5 - - ESE 1010,3 16 -
11.10.2019 07:00:00 25,6 23,9 9 5 - - SE 1009,9 16 0,0
11.10.2019 06:00:00 25,6 23,9 9 5 - - SSE 1009,5 16 -
11.10.2019 05:00:00 25,6 23,9 9 5 - - SSE 1009,1 16 -
11.10.2019 04:00:00 25,6 23,9 11 6 - - SSE 1009,1 16 -
11.10.2019 03:00:00 26,1 24,4 13 7 - - SSE 1009,4 16 -
11.10.2019 02:00:00 26,1 24,4 16 9 - - SSE 1009,9 16 -
11.10.2019 01:00:00 26,1 23,9 18 10 - - SSE 1009,9 16 0,0
11.10.2019 00:00:00 27,8 24,4 18 10 - - SSE 1010,1 16 -
10.10.2019 23:00:00 26,7 23,9 18 10 - - SE 1009,9 16 -
10.10.2019 22:00:00 26,1 23,9 13 7 - - SE 1009,4 16 -
10.10.2019 21:00:00 28,3 23,9 16 9 - - SE 1008,8 16 -
10.10.2019 20:00:00 28,3 23,3 16 9 - - SE 1008,2 16 -
10.10.2019 19:00:00 28,9 22,8 21 11 - - SE 1008,0 16 0,0
10.10.2019 18:00:00 30,6 22,2 31 17 - - SE 1007,7 16 -
10.10.2019 17:00:00 32,2 22,2 28 15 - - SE 1007,8 16 -
10.10.2019 16:00:00 33,3 22,2 26 14 - - SSE 1007,9 16 -
10.10.2019 15:00:00 33,9 22,2 34 18 - - S 1008,1 16 -
10.10.2019 14:00:00 34,4 22,2 29 16 - - SSE 1009,3 16 -
10.10.2019 13:00:00 32,8 22,2 24 13 - - SSE 1010,3 16 0,0
10.10.2019 12:00:00 32,2 22,2 22 12 - - S 1011,2 16 -
10.10.2019 11:00:00 31,1 22,2 29 16 - - S 1011,5 16 -
10.10.2019 10:00:00 31,1 22,8 28 15 - - SSE 1011,4 16 -
10.10.2019 09:00:00 28,9 24,4 18 10 - - SSE 1011,1 16 -
10.10.2019 08:00:00 26,7 23,3 11 6 - - SSE 1010,6 16 -
10.10.2019 07:00:00 27,2 23,3 16 9 - - SSE 1010,5 16 0,0
10.10.2019 06:00:00 27,8 22,8 24 13 - - SSE 1010,4 16 -
10.10.2019 05:00:00 27,8 23,3 15 8 - - SE 1010,0 16 -
10.10.2019 04:00:00 27,8 23,3 16 9 - - SE 1010,3 16 -
10.10.2019 03:00:00 27,8 23,3 16 9 - - SSE 1010,8 16 -
10.10.2019 02:00:00 27,8 23,3 18 10 - - SE 1011,0 16 -
10.10.2019 01:00:00 27,8 23,3 21 11 - - SE 1011,0 16 0,0
10.10.2019 00:00:00 27,8 23,3 18 10 - - SE 1011,1 16 -
09.10.2019 23:00:00 27,8 23,3 18 10 - - SE 1010,9 16 -
09.10.2019 22:00:00 28,3 23,3 15 8 - - SE 1010,7 16 -
09.10.2019 21:00:00 28,3 23,3 16 9 - - SE 1010,3 16 -
09.10.2019 20:00:00 28,3 23,3 21 11 - - SE 1009,9 16 -
09.10.2019 19:00:00 29,4 22,2 18 10 - - SE 1009,7 16 0,0
09.10.2019 18:00:00 31,1 21,7 22 12 - - SE 1009,3 16 -
09.10.2019 17:00:00 32,2 21,7 24 13 - - SE 1009,4 16 -
09.10.2019 16:00:00 33,3 21,7 24 13 - - SE 1009,8 16 -
09.10.2019 15:00:00 33,9 21,7 28 15 - - SE 1010,2 16 -
09.10.2019 14:00:00 33,3 21,7 26 14 - - SSE 1011,2 16 -
09.10.2019 13:00:00 30,0 22,2 29 16 - - SSE 1012,5 16 0,0
09.10.2019 12:00:00 32,2 22,2 28 15 - - SE 1013,2 16 -

tt = temperature
td = dewpoint
ff = wind speed
fx = gusts
dd = wind direction
ppp = reduced air pressure
vv = visibility
rr = precipitation

Next stations